Regional Weather Roundup
Issued by NWS Charleston, SC

Current Version | Previous Version | Graphics & Text | Print | Product List | Glossary On
Versions: 1 2 3 4 5 6 7 8 9 10 11 12 13 14 15 16 17 18 19 20 21 22 23 24 25 26 27 28 29 30 31 32 33 34 35 36 37 38 39 40 41 42 43 44 45 46 47 48 49 50
000
ASUS42 KCHS 012311
RWRCHS

REGIONAL WEATHER ROUNDUP
NATIONAL WEATHER SERVICE CHARLESTON SC
600 PM EST SUN FEB 01 2015

NOTE: "FAIR" INDICATES FEW OR NO CLOUDS BELOW 12,000 FEET WITH NO
SIGNIFICANT WEATHER AND/OR OBSTRUCTIONS TO VISIBILITY.

NOT ALL STATIONS ARE QUALITY CONTROLLED BY THE NATIONAL
WEATHER SERVICE. USE DATA WITH CAUTION...ESPECIALLY
DEWPOINT OBSERVATIONS.

SCZ027-030-031-034>040-042>050-020000-
...SOUTHEAST SOUTH CAROLINA...

CITY           SKY/WX    TMP DP  RH WIND       PRES   REMARKS
N CHARLESTON   CLOUDY    62  50  64 S6        30.07F
WATERFRONT PRK   N/A     59 N/A N/A S7          N/A
MOUNT PLEASANT CLOUDY    61  52  72 CALM      30.08F
PINOPOLIS        N/A     64  48  55 CALM      29.99F
MONCKS CORNER  CLOUDY    63  48  59 S3        30.07F
SUMMERVILLE    MOCLDY    63  52  67 SE6       30.07F
BEAUFORT MCAS  MOCLDY    59  50  72 S5        30.06F
BEAUFORT ARPT  FAIR      61  52  72 CALM      30.06S
HILTON HEAD IS CLEAR     59  50  72 S5        30.08F
WALTERBORO     PTCLDY    63  46  55 SE6       30.07S
ALLENDALE      FAIR      64  48  55 SE9       30.02S

...SOUTHERN MIDLANDS AND PEE DEE...

CITY           SKY/WX    TMP DP  RH WIND       PRES   REMARKS
GEORGETOWN     NOT AVBL
KINGSTREE      NOT AVBL
ORANGEBURG     MOCLDY    64  45  49 S12       30.03F
BARNWELL       FAIR      64  46  52 S7        30.02F
AIKEN          MOCLDY    63  45  51 S6        30.03F
MANNING        FAIR      63  -4   7 S7        30.05F
COLUMBIA       CLOUDY    64  45  49 S9        30.00F
SUMTER         CLOUDY    62  46  55 S8        30.01F
FLORENCE       CLOUDY    62  44  51 S9        30.04F
MYRTLE BEACH   MOCLDY    61  46  59 SW8         N/A
N MYRTLE BEACH MOCLDY    57  46  66 S6        30.10F

$$

GAZ063-065-086>088-099>101-113>116-118-119-134>141-150-020000-
...SOUTHEAST GEORGIA...

CITY           SKY/WX    TMP DP  RH WIND       PRES   REMARKS
SAVANNAH ARPT  PTCLDY    62  48  60 S8        30.06F
HUNTER AAF     PTCLDY    61  51  69 SE6       30.04F
FORT STEWART   PTCLDY    65  50  58 S10       30.04S
STATESBORO     CLOUDY    65  48  54 S7        30.03S
SYLVANIA       MOCLDY    64  49  56 S3        30.04S
CLAXTON        FAIR      66  52  59 CALM      30.05R

...CSRA...CENTRAL AND FAR SOUTHEAST GEORGIA...

CITY           SKY/WX    TMP DP  RH WIND       PRES   REMARKS
THOMSON        CLOUDY    65  51  58 S3        30.02F
AUGUSTA-BUSH   CLOUDY    65  44  46 S10       30.00F
AUGUSTA-DANIEL CLOUDY    65  45  48 S9        30.00F
SWAINSBORO     MOCLDY    66  36  32 S6        30.02F
VIDALIA        CLOUDY    64  48  55 S3        30.03F
EASTMAN        CLOUDY    65  50  58 S6        30.04F
HAZLEHURST     MOCLDY    67  49  52 CALM      30.02F
ALMA           CLOUDY    66  48  52 S5        30.03F
WAYCROSS       CLOUDY    71  51  48 S6        30.04S
JESUP          MOCLDY    70  54  56 CALM      30.05R
BAXLEY         CLOUDY    68  48  49 S3        30.03F
BRUNSWICK      PTCLDY    64  52  63 S8        30.06F
SAINT SIMONS   CLEAR     59  53  80 S8        30.06F

$$

SCZ027-028-034-036>038-045-046-048>050-GAZ119-141-020000-
...LAKE AND SUPPLEMENTAL COASTAL OBSERVATIONS...

STATION/POSITION TIME  TEMP    WIND        PRES    WAVE   SWELL
                       AIR SEA DIR/SP/G            HT/PER HT/PER/DIR
                 (UTC) (F)     (DEG/KT/KT) (MB)    (FT/S) (FT/S/D)
UPR LAKE MARION  NOT AVBL
WINYAH BAY       NOT AVBL
LAKE MURRAY      2200   57     160/  9/  9 1015.9F
ACE BASIN NERRS  NOT AVBL
FORT PULASKI     2200   63 52  150/  6/ 10 1018.6F
SAPELO ISLAND    2200   65     150/  7     1018.0F

$$

ANZ835-935-AMZ111-154-330-350-352-354-370-450-454-472-020000-
...C-MAN AND BUOY OBSERVATIONS...

STATION/POSITION TIME  TEMP    WIND        PRES    WAVE   SWELL
                       AIR SEA DIR/SP/G            HT/PER HT/PER/DIR
                 (UTC) (F)     (DEG/KT/KT) (MB)    (FT/S) (FT/S/D)
BUOY 41004       2250   67 71  170/ 21/ 27 1017.8F   5/ 4   3/11
BUOY 41008       2250   58 55  150/  8/  8 1017.9F   2/11   2/ 60/11
FOLLY BEACH CMAN 2200   56     160/  5/  6 1019.4F
CAPERS NEARSHORE 2200   57     180/  6/  8   N/A
FRIPP NEARSHORE  2200   57     170/  6/  6 1018.2F


STATION/POSITION TIME  TEMP    WIND        PRES    WAVE   SWELL
                       AIR SEA DIR/SP/G            HT/PER HT/PER/DIR
                 (UTC) (F)     (DEG/KT/KT) (MB)    (FT/S) (FT/S/D)
5E ST. MARYS GA  2221      58                N/A     3/12   2/ 90/12
FRYING PAN BUOY  2250   64 64  200/ 19/ 23 1020.4F   4/ 4   2/ 10/11
BUOY 41025       2250   60 71  230/ 14/ 19 1021.0F   4/ 9   3/ 60/ 9
CAPE LOOKOUT NC  2200   51     100/  4/  5 1020.8F
BUOY 41002       2250   63 71  180/ 14/ 17 1023.9F   7/10   7/ 30/10
BUOY 41010       2220   68 75  130/ 17/ 23 1020.7F
ST AUGUSTINE FL  2300   62     180/ 12/ 12 1018.7F


$$



USA.gov is the U.S. government's official web portal to all federal, state and local government web resources and services.